When you browse on this site, cookies collect data to enhance your experience and personalize the content and advertising you see.
Visit our Privacy Policy to learn more. By continuing to use the site, you agree to this use of cookies and data.
  • In Belgien
  • Länderverzeichnis
  • Für 7 Tage
  • Wassertemperatur
  • Satellitenkarten
  • Wetterkarte
  • Widgets
  • user-avatar
    Anmelden

    Stündliche Wetter Tirana

    Heute, 19 November, Montag

    Zeit Temperatur Niederschläge Wind Luftdruck Luftfeuchtigkeit
    00:00 +9°C° 0 mm 2 m/S 749 mmHg 80%
    01:00 +9°C° 0 mm 2 m/S 749 mmHg 80%
    02:00 +8°C° 0 mm 2 m/S 749 mmHg 81%
    03:00 +8°C° 0 mm 2 m/S 750 mmHg 81%
    04:00 +8°C° 0 mm 2 m/S 750 mmHg 81%
    05:00 +8°C° 0 mm 2 m/S 750 mmHg 81%
    06:00 +8°C° 0 mm 2 m/S 750 mmHg 81%
    07:00 +8°C° 0 mm 3 m/S 750 mmHg 81%
    08:00 +9°C° 0 mm 3 m/S 751 mmHg 75%
    09:00 +11°C° 0 mm 3 m/S 751 mmHg 69%
    10:00 +13°C° 0 mm 3 m/S 751 mmHg 62%
    11:00 +13°C° 0 mm 3 m/S 751 mmHg 59%
    12:00 +14°C° 0 mm 3 m/S 751 mmHg 56%
    13:00 +16°C° 0 mm 3 m/S 751 mmHg 53%
    14:00 +14°C° 0.1 mm 3 m/S 751 mmHg 58%
    15:00 +14°C° 0.1 mm 4 m/S 751 mmHg 62%
    16:00 +13°C° 0.1 mm 4 m/S 751 mmHg 67%
    17:00 +12°C° 0.1 mm 5 m/S 751 mmHg 69%
    18:00 +11°C° 0.1 mm 6 m/S 751 mmHg 72%
    19:00 +10°C° 0.1 mm 7 m/S 751 mmHg 74%
    20:00 +10°C° 0.5 mm 7 m/S 750 mmHg 75%
    21:00 +11°C° 0.5 mm 7 m/S 750 mmHg 76%
    22:00 +11°C° 0.5 mm 7 m/S 750 mmHg 76%
    23:00 +11°C° 1.5 mm 8 m/S 750 mmHg 78%

    Morgen, 20 November, Dienstag

    Zeit Temperatur Niederschläge Wind Luftdruck Luftfeuchtigkeit
    00:00 +11°C° 1.5 mm 8 m/S 750 mmHg 80%
    01:00 +11°C° 1.5 mm 9 m/S 750 mmHg 81%
    02:00 +11°C° 1.9 mm 9 m/S 750 mmHg 82%
    03:00 +11°C° 1.9 mm 9 m/S 750 mmHg 82%
    04:00 +11°C° 1.9 mm 9 m/S 750 mmHg 82%
    05:00 +11°C° 2.9 mm 9 m/S 750 mmHg 83%
    06:00 +11°C° 2.9 mm 9 m/S 750 mmHg 83%
    07:00 +11°C° 2.9 mm 9 m/S 750 mmHg 83%
    08:00 +12°C° 2.5 mm 9 m/S 750 mmHg 82%
    09:00 +12°C° 2.5 mm 9 m/S 750 mmHg 82%
    10:00 +13°C° 2.5 mm 9 m/S 750 mmHg 81%
    11:00 +13°C° 1.7 mm 9 m/S 750 mmHg 82%
    12:00 +13°C° 1.7 mm 9 m/S 750 mmHg 83%
    13:00 +13°C° 1.7 mm 9 m/S 749 mmHg 83%
    14:00 +13°C° 0.5 mm 8 m/S 749 mmHg 83%
    15:00 +13°C° 0.5 mm 8 m/S 749 mmHg 82%
    16:00 +13°C° 0.5 mm 8 m/S 749 mmHg 82%
    17:00 +13°C° 0.8 mm 8 m/S 749 mmHg 83%
    18:00 +13°C° 0.8 mm 8 m/S 749 mmHg 84%
    19:00 +13°C° 0.8 mm 8 m/S 749 mmHg 85%
    20:00 +12°C° 0.8 mm 7 m/S 749 mmHg 86%
    21:00 +12°C° 0.8 mm 7 m/S 749 mmHg 86%
    22:00 +12°C° 0.8 mm 7 m/S 749 mmHg 86%
    23:00 +13°C° 1.5 mm 6 m/S 748 mmHg 86%

    übermorgen, 21 November, Mittwoch

    Zeit Temperatur Niederschläge Wind Luftdruck Luftfeuchtigkeit
    00:00 +13°C° 1.5 mm 6 m/S 748 mmHg 87%
    01:00 +13°C° 1.5 mm 6 m/S 747 mmHg 87%
    02:00 +13°C° 2.6 mm 6 m/S 747 mmHg 87%
    03:00 +13°C° 2.6 mm 6 m/S 747 mmHg 87%
    04:00 +13°C° 2.6 mm 5 m/S 747 mmHg 87%
    05:00 +13°C° 1.1 mm 5 m/S 747 mmHg 87%
    06:00 +13°C° 1.1 mm 5 m/S 747 mmHg 86%
    07:00 +13°C° 1.1 mm 5 m/S 748 mmHg 86%
    08:00 +13°C° 1.6 mm 5 m/S 748 mmHg 88%
    09:00 +13°C° 1.6 mm 6 m/S 748 mmHg 89%
    10:00 +14°C° 1.6 mm 6 m/S 749 mmHg 90%
    11:00 +14°C° 2.4 mm 6 m/S 749 mmHg 91%
    12:00 +14°C° 2.4 mm 6 m/S 749 mmHg 91%
    13:00 +14°C° 2.4 mm 6 m/S 749 mmHg 91%
    14:00 +14°C° 2 mm 6 m/S 749 mmHg 92%
    15:00 +14°C° 2 mm 5 m/S 750 mmHg 93%
    16:00 +14°C° 2 mm 4 m/S 750 mmHg 94%
    17:00 +14°C° 0.6 mm 4 m/S 750 mmHg 95%
    18:00 +14°C° 0.6 mm 4 m/S 751 mmHg 95%
    19:00 +13°C° 0.6 mm 3 m/S 751 mmHg 96%
    20:00 +13°C° 0.4 mm 3 m/S 752 mmHg 96%
    21:00 +13°C° 0.4 mm 3 m/S 752 mmHg 96%
    22:00 +13°C° 0.4 mm 3 m/S 753 mmHg 95%
    23:00 +12°C° 0.3 mm 3 m/S 753 mmHg 95%

    22 November, Donnerstag

    Zeit Temperatur Niederschläge Wind Luftdruck Luftfeuchtigkeit
    00:00 +12°C° 0.3 mm 3 m/S 753 mmHg 95%
    01:00 +13°C° 0.3 mm 2 m/S 753 mmHg 95%
    02:00 +13°C° 0.2 mm 2 m/S 753 mmHg 94%
    03:00 +13°C° 0.2 mm 2 m/S 753 mmHg 93%
    04:00 +13°C° 0.2 mm 2 m/S 754 mmHg 93%
    05:00 +12°C° 0.2 mm 2 m/S 754 mmHg 92%
    06:00 +12°C° 0.2 mm 2 m/S 754 mmHg 91%
    07:00 +12°C° 0.2 mm 2 m/S 755 mmHg 90%
    08:00 +14°C° 0.1 mm 2 m/S 755 mmHg 84%
    09:00 +15°C° 0.1 mm 2 m/S 755 mmHg 78%
    10:00 +17°C° 0.1 mm 2 m/S 756 mmHg 73%
    11:00 +17°C° 0 mm 2 m/S 756 mmHg 70%
    12:00 +17°C° 0 mm 2 m/S 756 mmHg 68%
    13:00 +18°C° 0 mm 2 m/S 755 mmHg 66%
    14:00 +17°C° 0 mm 2 m/S 756 mmHg 70%
    15:00 +16°C° 0 mm 2 m/S 756 mmHg 75%
    16:00 +15°C° 0 mm 2 m/S 756 mmHg 79%
    17:00 +15°C° 0 mm 2 m/S 756 mmHg 82%
    18:00 +14°C° 0 mm 2 m/S 757 mmHg 84%
    19:00 +13°C° 0 mm 2 m/S 757 mmHg 87%
    20:00 +13°C° 0 mm 2 m/S 758 mmHg 87%
    21:00 +13°C° 0 mm 2 m/S 758 mmHg 87%
    22:00 +12°C° 0 mm 2 m/S 759 mmHg 87%
    23:00 +12°C° 0 mm 2 m/S 759 mmHg 86%

    23 November, Freitag

    Zeit Temperatur Niederschläge Wind Luftdruck Luftfeuchtigkeit
    00:00 +12°C° 0 mm 2 m/S 759 mmHg 86%
    01:00 +12°C° 0 mm 2 m/S 759 mmHg 85%
    02:00 +12°C° 0 mm 2 m/S 759 mmHg 85%
    03:00 +10°C° 0 mm 2 m/S 759 mmHg 84%
    04:00 +10°C° 0 mm 2 m/S 759 mmHg 83%
    05:00 +10°C° 0 mm 2 m/S 760 mmHg 83%
    06:00 +10°C° 0 mm 2 m/S 760 mmHg 82%
    07:00 +10°C° 0 mm 2 m/S 760 mmHg 82%
    08:00 +13°C° 0 mm 2 m/S 760 mmHg 75%
    09:00 +15°C° 0 mm 1 m/S 761 mmHg 69%
    10:00 +16°C° 0 mm 1 m/S 761 mmHg 62%
    11:00 +18°C° 0 mm 1 m/S 761 mmHg 60%
    12:00 +17°C° 0 mm 2 m/S 760 mmHg 57%
    13:00 +18°C° 0 mm 2 m/S 760 mmHg 55%
    14:00 +17°C° 0 mm 2 m/S 760 mmHg 59%
    15:00 +16°C° 0 mm 2 m/S 760 mmHg 63%
    16:00 +15°C° 0 mm 2 m/S 760 mmHg 67%
    17:00 +14°C° 0 mm 2 m/S 760 mmHg 69%
    18:00 +14°C° 0 mm 2 m/S 760 mmHg 71%
    19:00 +13°C° 0 mm 2 m/S 761 mmHg 73%
    20:00 +12°C° 0 mm 2 m/S 761 mmHg 74%
    21:00 +12°C° 0 mm 2 m/S 761 mmHg 75%
    22:00 +12°C° 0 mm 2 m/S 761 mmHg 75%
    23:00 +12°C° 0 mm 2 m/S 761 mmHg 75%

    24 November, Samstag

    Zeit Temperatur Niederschläge Wind Luftdruck Luftfeuchtigkeit
    00:00 +10°C° 0 mm 2 m/S 761 mmHg 75%
    01:00 +10°C° 0 mm 2 m/S 761 mmHg 75%
    02:00 +10°C° 0 mm 2 m/S 760 mmHg 75%
    03:00 +10°C° 0 mm 2 m/S 760 mmHg 74%
    04:00 +10°C° 0 mm 2 m/S 760 mmHg 74%
    05:00 +10°C° 0 mm 2 m/S 760 mmHg 74%
    06:00 +9°C° 0 mm 3 m/S 760 mmHg 73%
    07:00 +9°C° 0 mm 3 m/S 760 mmHg 73%
    08:00 +11°C° 0 mm 3 m/S 760 mmHg 66%
    09:00 +13°C° 0 mm 3 m/S 759 mmHg 60%
    10:00 +16°C° 0 mm 3 m/S 759 mmHg 53%
    11:00 +17°C° 0 mm 3 m/S 759 mmHg 52%
    12:00 +17°C° 0 mm 3 m/S 758 mmHg 50%
    13:00 +17°C° 0 mm 3 m/S 758 mmHg 48%
    14:00 +16°C° 0 mm 3 m/S 758 mmHg 53%
    15:00 +14°C° 0 mm 4 m/S 757 mmHg 58%
    16:00 +14°C° 0 mm 4 m/S 757 mmHg 62%
    17:00 +13°C° 0 mm 4 m/S 757 mmHg 62%
    18:00 +13°C° 0 mm 5 m/S 757 mmHg 61%
    19:00 +13°C° 0 mm 5 m/S 757 mmHg 61%
    20:00 +12°C° 0.1 mm 5 m/S 757 mmHg 62%
    21:00 +11°C° 0.1 mm 6 m/S 756 mmHg 64%
    22:00 +11°C° 0.1 mm 6 m/S 756 mmHg 65%
    23:00 +11°C° 0.3 mm 6 m/S 756 mmHg 66%
    Mehr zeigen